{"data":{"norad_id":65041,"intl_designator":"2025-161AC","name":"STARLINK-34820","alt_names":[],"object_type":"PAYLOAD","status":"ACTIVE","operator":null,"country":"US","launch_date":"2025-07-30","launch_site_code":"AFWTR","launch_vehicle":null,"mission":null,"orbit_class":"UNKNOWN","rcs_meters":null,"size_class":null,"mass_kg":null,"dimensions":null,"purposes":["comms"],"wikipedia_slug":null,"has_3d_model":false,"image_url":null,"decayed_at":null,"tle_current":{"epoch":"2026-09-19T20:40:15.232224Z","epoch_age_seconds":175399,"freshness":"STALE","line1":"1 65041U 25161AC  26262.86128741  .00014949  00000+0  45274-3 0  9997","line2":"2 65041  53.1574 108.3756 0000541  95.8666 264.2398 15.34395092 64019","mean_motion":15.34395092,"eccentricity":5.41e-5,"inclination_deg":53.1574,"raan_deg":108.3756,"arg_perigee_deg":95.8666,"mean_anomaly_deg":264.2398,"bstar":0.00045274,"rev_number":6401,"period_min":93.848058267903,"perigee_km":462.34773761012,"apogee_km":463.08791810249,"semimajor_km":6840.8548278563,"source":"CELESTRAK","updated_at":"2026-09-21T09:00:35.497226Z"}}}